Preview of NWS' New Version of Forecast
This preview is not operational and should not be used for support decisions.
Latest weather observations around

Clayton Lake (K40B)

Using English Units (Switch to International System of Units)
Date/ Time (EDT) Wind (mph) Vis. (mi) Weather Sky Cond. Temp (°F) Rel. Humidity Wind Chill (°F) Heat Index (°F) Pressure Precip. (in)
Air Dwpt 6 hour Altimeter (inHg) Sea level (inHg) 1 hr 3 hr 6 hr
Max Min
Oct 15 10:19 S 10   Clear   50        %       30.1      
Oct 15 09:16 S 10   Clear   44        % 39     30.12      
Oct 15 08:16 2   Clear   41        %       30.14      
Oct 15 07:16 Calm   Clear   38        %       30.14      
Oct 15 06:16 Calm   Clear   38        %       30.16      
Oct 15 05:16 Calm   Clear   37        %       30.15      
Oct 15 04:16 Calm   Clear   39        %       30.15      
Oct 15 03:16 Calm   Clear   38        %       30.14      
Oct 15 02:16 3   Clear   35        % 32     30.14      
Oct 15 01:16 Calm   Clear   36        %       30.14      
Oct 15 00:16 5   Clear   37        % 34     30.14      
Oct 14 23:16 Calm   Clear   34        %       30.15      
Oct 14 22:16 3   Clear   36        % 34     30.14      
Oct 14 21:16 3   Clear   38        % 35     30.13      
Oct 14 20:16 Calm   Clear   36        %       30.12      
Oct 14 19:16 3   Clear   38        % 35     30.11      
Oct 14 18:16 Calm   Clear   39        %       30.11      
Oct 14 17:16 7   Clear   45        % 42     30.09      
Oct 14 16:16 WSW 8   Clear   47 28     47% 44     30.08      
Oct 14 15:16 6   Clear   48 27     43% 46     30.07      
Oct 14 14:16 6   Clear   46 26     46% 43     30.07      
Oct 14 13:16 WSW 7   Clear   43 27     53% 38     30.08      
Oct 14 12:19 6   Clear   43 29     57% 40     30.08      
Oct 14 11:16 W 8   Clear   41 24     52% 35     30.09      
Oct 14 10:16 7   Clear   38 23     54% 33     30.09      
Oct 14 09:16 6   Clear   36 24     60% 32     30.07      
Oct 14 08:16 2   Clear   34 25     69%       30.06 0   0
Oct 14 07:16 Calm   Clear   30 24     79%       30.04      
Oct 14 06:16 Calm   Clear   28 24     85%       30.01      
Oct 14 05:16 Calm   Clear   29 24     82%       29.99      
Oct 14 04:16 2   Clear   29 25     87%       29.97      
Oct 14 03:16 Calm   Clear   28 26     92%       29.95      
Oct 14 02:16 Calm   Clear   29 25     82%       29.94      
Oct 14 01:16 Calm   Clear   29 25     86%       29.92      
Oct 14 00:16 Calm   Clear   29 28     96%       29.91      
Oct 13 23:16 2   Clear   31 30     95%       29.88      
Oct 13 22:16 Calm   Clear   32 28     85%       29.86      
Oct 13 21:16 Calm   Clear   35 29     79%       29.84      
Oct 13 20:16 Calm   Clear   34 30     86%       29.82      
Oct 13 19:16 Calm   Clear   37 30     76%       29.81      
Oct 13 18:16 2   Clear   38 29     69%       29.79      
Oct 13 17:16 5   Clear   39 28     64% 36     29.77      
Oct 13 16:16 5   Clear   40 28     61% 37     29.75      
Oct 13 15:16 2   Clear   41 29     63%       29.74      
Oct 13 14:16 6   Clear   40 29     66% 36     29.74      
Oct 13 13:16 3   Clear   39 29     67% 37     29.75      
Oct 13 12:16 Calm   Clear   40 28     62%       29.75      
Oct 13 11:16 5   Clear   39 29     67% 36     29.75      
Oct 13 10:16 6   Clear   38 29     70% 33     29.75      
Notice The following observation data may not be complete
Oct 13 08:16     Clear            %              
Oct 13 07:16 5   Clear   35 30     84% 30     29.7      
Oct 13 06:16 Calm   Clear   35 31     85%       29.67      
Oct 13 05:16 Calm   Clear   36 31     83%       29.67      
Oct 13 04:16 2   Clear   37 32     83%       29.67      
Oct 13 02:16 2   Clear   37 32     82%       29.64      
Oct 13 01:16 Calm   Clear   37 32     80%       29.64      
Oct 13 00:16 2   Clear   38 32     78%       29.62      
Oct 12 23:16 2   Clear   37 32     82%       29.62      
Oct 12 21:16 3   Clear   38 33     83% 36     29.57      
Oct 12 20:16 5   Clear   38 33     81% 35     29.56      
Oct 12 16:16 6   Clear   44 37     76% 41     29.49      
Oct 12 13:16 5   Clear   49 42     76% 47     29.49      
Oct 12 12:16 6   Clear   47 42     81% 45     29.52      
Oct 12 11:16 3   Clear   49 46     90% 48     29.52      
Notice The following observation data may not be complete
Oct 12 07:16 Calm   Clear            %       29.55      
Notice The following observation data may not be complete
Oct 12 00:16 3   Clear            %       29.61 0    
Oct 11 19:16 7   Clear   39 39     100% 34     29.71 0    
Notice The following observation data may not be complete
Oct 11 17:16     Clear            %         0 0  
Oct 11 14:16 E 10   Clear   39 38     99% 32     29.82 0   0
Oct 11 12:16 E 7   Clear   38 38     99% 33     29.89 0    
Notice The following observation data may not be complete
Oct 11 05:16 ENE 7   Clear            %       30.02 0 0  
Oct 11 02:16 5   Clear   38 38     100% 35     30.07     0
Oct 10 23:16 6   Clear   40 40     100% 36     30.1 0 0  
Notice The following observation data may not be complete
Oct 10 17:16 2   Clear            %       30.09   0  
Oct 10 14:16 6   Clear   45 45     100% 42     30.08 0   0
Oct 10 10:16 3   Clear   46 46     99% 45     30.09      
Notice The following observation data may not be complete
Oct 10 08:16 Calm   Clear            %       30.07 0   0
Notice The following observation data may not be complete
Oct 10 07:16 Calm   Clear            %       30.04 0    
Notice The following observation data may not be complete
Oct 10 04:16 5   Clear            %       29.98 0    
Notice The following observation data may not be complete
Oct 10 01:16 Calm   Clear            %       29.92 0    
Oct 09 23:16 3   Clear   68 67     98%       29.92      
Oct 09 22:16 SSW 8   Clear   70 66     89%       29.92      
Notice The following observation data may not be complete
Oct 09 09:16     Clear            %              
Notice The following observation data may not be complete
Oct 09 04:16 3   Clear            %       30.17 0    
Oct 09 01:16 5   Clear   45 45     100% 42     30.22 0    
Oct 09 00:16 Calm   Clear   44 44     99%       30.25      
Oct 08 20:16 3   Clear   45 38     76% 44     30.36      
Oct 08 19:16 Calm   Clear   47 37     68%       30.38      
Oct 08 18:16 Calm   Clear   47 36     67%       30.4      
Oct 08 17:16 Calm   Clear   48 35     61%       30.42      
Oct 08 16:16 3   Clear   49 34     56% 48     30.45      
Oct 08 13:16 2   Clear   47 32     56%       30.51      
Oct 08 12:16 3   Clear   45 34     65% 44     30.56      
Oct 08 11:16 Calm   Clear   42 31     67%       30.56      
Oct 08 09:16 2   Clear   40 32     75%       30.58      
Oct 08 05:16 Calm   Clear   37 36     97%       30.52      
Oct 08 03:16 Calm   Clear   38 36     94%       30.51      
Oct 08 02:16 Calm   Clear   37 34     88%       30.5      
Oct 08 00:17 Calm   Clear   38 33     84%       30.45      
Oct 07 19:16 Calm   Clear   41 34     76%       30.41      
Oct 07 17:16 Calm   Clear   42 33     69%       30.38      
Oct 07 16:16 2   Clear   44 33     67%       30.35      
Oct 07 14:16 6   Clear   43 34     69% 40     30.34      
Oct 07 13:16 5   Clear   43 35     73% 40     30.33      
Oct 07 12:16 5   Clear   42 33     72% 39     30.33      
Oct 07 11:16 6   Clear   42 34     71% 39     30.31      
Oct 07 10:16 5   Clear   42 35     75% 39     30.3      
Oct 07 06:16 2   Clear   42 40     95%       30.16      
Oct 07 05:16 2   Clear   44 42     93%       30.13      
Oct 07 04:16 2   Clear   46 46     99%       30.09      
Notice The following observation data may not be complete
Oct 07 01:16 Calm   Clear            %       30.01 0    
Oct 06 23:16 Calm   Clear   47 47     97%       30.01 0 0  
Oct 06 22:16 3   Clear   49 42     76% 48     30      
Oct 06 19:16 5   Clear   50 38     63%       30.08      
Oct 06 17:16 2   Clear   51 37     60%       30.12      
Oct 06 16:16 5   Clear   51 34     51%       30.14      
Oct 06 12:16 2   Clear   45 25     44%       30.25      
Oct 06 11:16 5   Clear   43 24     46% 41     30.28      
Notice The following observation data may not be complete
Oct 06 08:16     Clear            %              
Oct 06 05:16 Calm   Clear   33 31     94%       30.29      
Notice The following observation data may not be complete
Oct 06 02:16     Clear            %              
Oct 06 01:16 Calm   Clear   33 32     96%       30.27      
Oct 05 23:16 Calm   Clear   37 32     81%       30.25      
Oct 05 22:16 Calm   Clear   38 32     79%       30.26      
Oct 05 21:16 Calm   Clear   39 31     72%       30.25      
Oct 05 19:16 3   Clear   42 27     54% 41     30.27      
Oct 05 16:16 2   Clear   50 20     30%       30.22      
Oct 05 09:16 3   Clear   39 25     57% 36     30.29      
Oct 05 08:16 Calm   Clear   36 26     68%       30.28     0
Oct 05 07:16 2   Clear   30 29     98%       30.25      
Oct 05 06:16 Calm   Clear   29 28     99%       30.24      
Oct 05 05:16 Calm   Clear   29 29     98%       30.2 0 0  
Oct 05 04:16 2   Clear   31 30     96%       30.18 0    
Oct 05 03:16 Calm   Clear   33 29     87%       30.14      
Oct 05 02:16 Calm   Clear   36 29     78%       30.11      
Oct 05 01:16 2   Clear   39        %       30.09      
Oct 05 00:17 Calm   Clear   40        %       30.06      
Oct 04 23:16 3   Clear   44        % 42     30.02      
Oct 04 22:16 5   Clear   46        % 43     29.98      
Oct 04 21:16 5   Clear   51        %       29.92      
Oct 04 20:16 Calm   Clear   58        %       29.85     0
Oct 04 19:16 2   Clear   61        %       29.81 0    
Oct 04 18:16 3   Clear   62        %       29.77      
Notice The following observation data may not be complete
Oct 04 17:16 Calm   Clear            %       29.75 0 0  
Oct 04 16:16 S 13   Clear   59        %       29.73 0    
Oct 04 15:16     Clear   59        %       29.71      
Oct 04 14:16     Clear   66        %       29.69      
Oct 04 13:28     Clear   61        %       29.71      
Oct 04 12:16 SSE 13   Clear   59        %       29.73      
Oct 04 11:16     Clear   58        %       29.76      
Oct 04 10:16 SSE 9   Clear   54        %       29.82      
Oct 04 09:16 SE 9   Clear   53        %       29.84      
Oct 04 08:16 5   Clear   52 51     98%       29.9      
Oct 04 07:16 6   Clear   50 50     100%       29.9      
Oct 04 06:16 3   Clear   49 49     100% 48     29.91      
Oct 04 05:16 5   Clear   48 48     100% 47     29.94      
Oct 04 04:16 5   Clear   48 48     100% 46     29.98      
Oct 04 03:16 5   Clear   47 47     99% 45     30      
Oct 04 02:16 6   Clear   47 47     99% 44     30.01      
Oct 04 01:16 7   Clear   47 47     100% 44     30.05      
Oct 04 00:16 S 7   Clear   47 47     100% 43     30.05      
Oct 03 23:16 3   Clear   47 46     98% 46     30.06      
Oct 03 22:16 Calm   Clear   47 46     95%       30.09      
Sep 25 10:16 SSE 13   Clear   51 34     52%       30.55      
Sep 25 09:16     Clear   46 30     53%       30.57      
May 15 06:16 WSW 7   Clear   57 41     55%       29.72      
May 14 20:16 Calm   Clear   60 41     50%       29.71      
May 14 15:16 WSW 14   Clear   74 35     24%   72   29.71      
May 14 12:16 SSW 11   Clear   69 35     29%       29.76      
May 13 21:16 S 9   Clear   53 31     44%       29.9      
May 13 19:16 3   Clear   63 24     23%       29.9      
May 13 14:16 SSW 13   Clear   64 25     22%       30.06      
May 12 17:16 5   Clear   56 16     20%       30.03      
May 12 00:16 Calm   Clear   28 22     77%       30.15      
May 11 23:16 Calm   Clear   29 22     74%       30.14      
May 11 10:16 6   Clear   36 20     52% 31     29.94      
Jun 12 02:16 Calm   Clear   57 52     83%       29.86      
Jun 11 23:16 Calm   Clear   64 56     75%       29.8      
Jun 11 18:16 WSW 8   Clear   85 54     35%   84   29.63      
Jun 11 16:16 SW 8   Clear   86 54     34%   84   29.61      
Jun 11 15:16 SW 11   Clear   86 54     34%   84   29.59      
Jun 10 20:17 Calm   Clear   62 47     58%       29.84      
Jun 10 10:16 SSW 9   Clear   59 36     42%       29.92      
Jun 09 17:16 3   Clear   63 57     79%       29.46      
Jun 08 03:16 3   Clear   58 50     75%       29.88      
Jun 08 01:16 3   Clear   56 49     78%       29.88